Weather in Sintra

Portugal     38°48′25″N   9°22′37″W
temp.,
°C
wind,
m/s
gust,
m/s
humid.,
%
clouds,
%
prec.,
mm/h
press.,
hPa
HPBL,
m
18 may, tue
tue1801:00+16n3478100 0.0 1022176
04:00+16nnw45846 0.0 1021217
07:00+16nnw34895 0.0 1021128
10:00+17nw358882 0.0 1023217
13:00+18nw4589100 0.0 1023282
16:00+18nnw7894100 0.0 1023396
19:00+17n10128679 0.0 1023498
22:00+16n1014855 0.0 1024572
19 may, wed
wed1901:00+16n11158145 0.0 1024616
04:00+16n11147974 0.0 1024662
07:00+16n11147691 0.0 1023623
10:00+16n10137095 0.0 1024637
13:00+17n1112695 0.0 1024475
16:00+17n12146988 0.0 1023489
19:00+16n11157114 0.0 1023491
22:00+16n11167735 0.0 1024484
20 may, thu
thu2001:00+16n91579100 0.0 1023425
04:00+16n81480100 0.0 1022390
07:00+16n7128675 0.0 1022351
10:00+17n688125 0.0 1021262
13:00+18nnw78818 0.0 1022212
16:00+17n9128122 0.0 1021282
19:00+17n81280100 0.0 1020271
22:00+17n101676100 0.0 1021331
21 may, fri
fri2101:00+17n9157878 0.0 1020341
04:00+16n81482100 0.0 1019381
07:00+16n8138617 0.0 1019431
10:00+17n81185100 0.0 1020410
13:00+17nnw91184100 0.0 1021447
16:00+17nnw91287100 0.0 1020437
19:00+17n811918 0.0 1019480
22:00+16n111382100 0.1 1020732
22 may, sat
sat2201:00+15n1012736 0.1 1021786
04:00+15n1011743 0.0 1019766
07:00+15n101169100 0.0 1019778
10:00+16n101169100 0.0 1019797
13:00+16n101068100 0.0 1020858
16:00+16nnw111268100 0.0 1019908
19:00+16n111269100 0.0 1019943
22:00+15n101172100 0.0 1020884